Preview of NWS' New Version of Forecast
This preview is not operational and should not be used for support decisions.

Regional Weather Roundup (RWR)

Issued by National Weather Service (NWS)

                            
000
ASUS43 KDTX 181110
RWRMI 
MICHIGAN HOURLY REGIONAL WEATHER ROUNDUP
NATIONAL WEATHER SERVICE DETROIT/PONTIAC MI
700 AM EDT THU APR 18 2019

NOTE: "FAIR" INDICATES FEW OR NO CLOUDS BELOW 12,000 FEET WITH NO
SIGNIFICANT WEATHER AND/OR OBSTRUCTION TO VISIBILITY.

MIZ047>049-052>055-059>063-066>070-074>076-081>083-181200-
SOUTHEAST LOWER MICHIGAN
  
CITY           SKY/WX    TMP DP  RH WIND       PRES   REMARKS
ADRIAN         CLOUDY    58  51  78 SW13      29.64S                  
ALMA           CLOUDY    60  54  79 S7        29.54S                  
ANN ARBOR      CLOUDY    58  53  84 S8        29.63S                  
BAD AXE        CLOUDY    57  51  79 S8        29.54S                  
CARO           FAIR      60  52  75 S10       29.54F                  
DETROIT CITY   MOCLDY    60  50  69 S13       29.62F                  
DETROIT        CLOUDY    60  50  69 S12       29.63F                  
FLINT          FAIR      60  52  74 SW10      29.57F                  
GROSSE ILE     MOCLDY    52  48  86 S9        29.64R                  
HILLSDALE      FAIR      60  54  79 S9        29.62F                  
HOWELL         CLOUDY    60  51  72 S13       29.59S                  

CITY           SKY/WX    TMP DP  RH WIND       PRES   REMARKS
JACKSON        CLOUDY    61  55  81 S16G25    29.60S                  
LAMBERTVILLE   MOCLDY    61  51  69 S9        29.65S                  
LANSING        CLOUDY    61  55  81 SW13      29.58S                  
LAPEER         FAIR      60  52  74 SW9       29.58F                  
MASON          CLOUDY    61  55  79 S7        29.59S                  
MONROE         FAIR      60  56  86 S8        29.63F                  
MT. CLEMENS    CLOUDY    56  56 100 S9        29.60F                  
PONTIAC        CLOUDY    61  52  72 S10       29.59F                  
PORT HOPE        N/A     59  50  72 SW10      29.52R                  
PORT HURON     CLOUDY    61  50  67 S14       29.61F                  
TRI CITIES     CLOUDY    61  54  77 SW14      29.53F                  
MIDLAND        CLOUDY    58  52  79 S8        29.52R                  
TROY           FAIR      61  51  68 SW12      29.63F                  
SAGINAW HB     MOCLDY    61  54  77 S13       29.54R                  
$$
MIZ043>046-050>051-056>058-064>065-071>073-077>080-181200-
SOUTHWEST LOWER MICHIGAN
  
CITY           SKY/WX    TMP DP  RH WIND       PRES   REMARKS
BATTLE CREEK   CLOUDY    63  57  81 SW15      29.59S                  
BENTON HARBOR  HVY RAIN  63  58  83 SW9       29.56S                  
BIG RAPIDS     CLOUDY    58  54  88 SW7       29.51R                  
COLDWATER      FAIR      62  58  87 S7        29.61S                  
FREMONT        CLOUDY    54  53  95 SW7       29.53R                  
HOLLAND        CLOUDY    61  57  87 SW17      29.55R                  
GRAND RAPIDS   CLOUDY    64  56  75 SW16G23   29.54S                  
IONIA          CLOUDY    60  53  76 S12       29.55R                  
KALAMAZOO      CLOUDY    63  57  81 S13G20    29.58S                  
LUDINGTON      CLOUDY    46  46  97 SW3       29.53R FOG              
MARSHALL       CLOUDY    62  59  90 S7        29.59S                  
MOUNT PLEASANT DRIZZLE   58  54  85 SW7       29.52R                  
MUSKEGON       CLOUDY    50  47  89 SW9       29.54R FOG              
SOUTH HAVEN    CLOUDY    65  58  77 SW12G21   29.55S                  
$$
MIZ016>042-181200-
NORTHERN LOWER MICHIGAN
  
CITY           SKY/WX    TMP DP  RH WIND       PRES   REMARKS
ALPENA         FAIR      49  47  93 SW5       29.47R                  
BEAVER ISLAND  FOG       38  38  99 CALM      29.47R VSB 1/2          
BELLAIRE       CLOUDY    50  47  87 SW6       29.48R                  
CADILLAC       CLOUDY    55  53  94 SW8       29.49R FOG              
CHARLEVOIX     CLOUDY    45  44  95 SW13G20   29.50R FOG              
FRANKFORT      CLOUDY    44  40  85 CALM      29.51R FOG              
GAYLORD        FOG       50  50 100 SW13      29.46R VSB 1            
GRAYLING       CLOUDY    53  52  95 SW6       29.47R                  
HARBOR SPRINGS CLOUDY    45  44  97 W6        29.46R FOG              
HOUGHTON LAKE  MOCLDY    53  50  89 SW6       29.49S                  
MANISTEE       FOG       44  43  96 W6        29.51R VSB 3/4          
OSCODA         CLOUDY    52  50  94 SW7       29.50R                  
PELLSTON       CLOUDY    46  44  93 S5        29.46R                  
ROGERS CITY    CLOUDY    48  46  93 S8        29.45S                  
TRAVERSE CITY  CLOUDY    50  47  89 W10       29.48R FOG              
$$
MIZ007>008-015-181200-
EASTERN UPPER MICHIGAN
  
CITY           SKY/WX    TMP DP  RH WIND       PRES   REMARKS
KINROSS        CLOUDY    37  37 100 E5        29.46R FOG     WCI  33  
MACKINAC ISLAN CLOUDY    36  36 100 E7        29.46R FOG     WCI  30  
NEWBERRY       CLOUDY    37  35  92 CALM      29.49R FOG              
S. S. MARIE    CLOUDY    41  40  96 E6        29.46R FOG              
MUNISING         N/A     34  33  96 N9        29.50R WCI  27          
$$
MIZ004>006-011>014-085-181200-
CENTRAL UPPER MICHIGAN
  
CITY           SKY/WX    TMP DP  RH WIND       PRES   REMARKS
MANISTIQUE     CLOUDY    38  33  80 NW6       29.48R HAZE    WCI  34  
ESCANABA       CLOUDY    36  35  96 NW6       29.53R WCI  31          
MENOMINEE      CLOUDY    38  37  97 N8        29.55R FOG     WCI  32  
SAWYER-GWINN   LGT RAIN  34  34 100 N13       29.51R FOG     WCI  25  
$$
MIZ001>003-009>011-084-181200-
WESTERN UPPER MICHIGAN
  
CITY           SKY/WX    TMP DP  RH WIND       PRES   REMARKS
IRON MOUNTAIN  CLOUDY    36  33  89 NW9       29.53R WCI  29          
HOUGHTON       CLOUDY    37  33  85 N13       29.61R WCI  29          
COPPER HARBOR    N/A     36  33  89 NE15      29.61R WCI  27          
IRONWOOD       MIX PCPN  33  33 100 N8        29.66R FOG     WCI  26  
$$

ABBREVIATIONS USED IN REMARKS
   TC - TEMPERATURE IN CELSIUS
  WCI - WIND CHILL INDEX
   HX - HEAT INDEX
  VSB - VISIBILITY